Weather in Tatarskiye Yunki

Russia / Republic of Mordovia     54°11′05″N   43°20′33″E
temp.,
°C
wind,
m/s
gust,
m/s
humid.,
%
clouds,
%
prec.,
mm/h
press.,
hPa
HPBL,
m
19 january, wed
wed1900:00−3n4797100 1.1 1009287
03:00−7n5995100 1.9 1012334
06:00−8n499491 0.7 1013300
09:00−10n4796100 0.8 1015229
12:00−11n359421 0.0 1016177
15:00−12nnw119621 0.0 101715
18:00−18nw1110084 0.0 10189
21:00−20ssw11100100 0.0 10189
20 january, thu
thu2000:00−21ssw22100100 0.0 101813
03:00−20s3410097 0.0 101846
06:00−19ssw3610099 0.0 101774
09:00−15s4109799 0.0 1017167
12:00−12ssw5119580 0.0 1016280
15:00−11s5119469 0.0 1015293
18:00−13s512938 0.0 1015241
21:00−14s614925 0.0 1015266
21 january, fri
fri2100:00−14s6159227 0.0 1015305
03:00−14s6168990 0.0 1014319
06:00−14sse61588100 0.0 1013292
09:00−14sse71788100 0.0 1013325
12:00−10sse81888100 0.0 1012475
15:00−8sse81985100 0.0 1010629
18:00−8sse91790100 0.2 1009669
21:00−8se81693100 0.6 1008590
22 january, sat
sat2200:00−7sse81594100 1.1 1008583
03:00−7sse5119497 1.4 1010279
06:00−10sse499773 0.1 1011151
09:00−12sse4109699 0.1 1014164
12:00−9sse4109464 0.0 1015262
15:00−9se379580 0.0 1017157
18:00−13se369693 0.0 101978
21:00−14se3497100 0.0 102154
23 january, sun
sun2300:00−18se2210067 0.0 102213
03:00−20ese2210099 0.0 102410
06:00−21e11100100 0.0 10249
09:00−20ese11100100 0.0 10279
12:00−12ese009561 0.0 102863
15:00−11ne119678 0.0 102911
18:00−15ne2297100 0.0 103118
21:00−12ne3597100 0.0 103178